Wind_Speed
25 24 24 24 23 23 23 23 23 22 21 20 19 18 18 17 17 17 17 17 17 16 16 16 17 17 17 17 17 17 16 16 17 17 16 16 17 17 18 18 18 19 19 20
27 27 27 25 24 24 24 24 24 23 22 22 21 20 19 18 19 19 19 19 19 18 19 19 19 18 19 18 18 18 18 19 19 19 18 17 17 18 19 20 21 21 21 21
29 29 29 27 25 25 25 25 25 24 23 23 22 21 20 20 20 20 20 21 21 21 21 21 20 20 20 20 20 20 21 21 20 19 18 18 18 20 21 21 22 22 23 23
30 30 31 28 27 27 27 26 25 25 25 24 24 23 22 22 22 21 22 22 22 22 22 23 22 22 23 23 22 22 23 23 21 20 19 20 21 21 22 23 23 24 24 24
30 30 31 30 29 28 28 27 26 26 25 25 25 25 25 24 24 24 24 24 23 24 24 24 24 24 24 24 24 24 24 24 24 23 22 22 23 24 24 25 25 25 25 25
30 30 31 30 30 30 30 29 27 27 27 27 26 26 26 26 26 26 25 25 25 26 26 26 26 26 25 25 25 25 25 25 25 25 25 25 26 26 26 26 26 26 26 26
30 31 32 31 30 29 30 29 28 28 28 29 28 28 27 27 27 27 27 27 27 27 27 27 27 28 27 27 28 28 27 27 27 27 27 27 27 28 28 27 27 27 27 27
30 31 31 30 30 30 30 30 30 29 29 29 29 29 28 28 28 28 29 29 29 29 30 30 30 30 30 30 30 29 29 28 28 28 29 28 29 29 29 28 27 27 27 27
30 30 30 30 30 30 30 31 31 30 30 30 30 29 29 29 30 30 30 31 32 31 32 32 32 32 32 31 31 30 30 30 29 30 30 30 29 29 29 28 28 28 28 28
31 30 30 30 30 30 31 31 31 31 31 31 31 31 31 31 31 31 32 33 33 33 34 34 34 33 33 32 33 32 31 31 31 31 31 31 31 30 30 30 30 30 30 30
32 32 31 31 31 32 32 33 33 33 32 32 32 31 31 31 32 32 33 33 33 33 34 33 33 33 33 33 34 34 33 32 32 32 32 31 31 31 31 31 31 31 31 31
32 32 32 32 32 32 32 33 34 34 34 34 33 33 33 33 32 33 33 33 33 32 33 33 33 33 34 33 33 33 33 32 32 32 31 31 31 31 31 32 32 32 32 32
32 32 32 32 32 33 33 33 33 33 34 35 35 34 34 33 33 33 33 33 33 33 35 34 34 34 34 33 33 33 33 33 32 32 31 32 32 31 32 32 32 32 32 32
33 32 31 31 32 32 33 33 33 34 34 35 35 35 36 35 34 35 35 35 35 35 35 35 34 33 33 34 34 34 34 33 33 32 32 32 32 32 32 32 32 32 32 31
31 32 31 31 32 32 32 32 33 34 35 36 36 36 37 37 37 36 36 36 35 35 35 34 33 33 33 33 34 34 34 33 33 32 32 32 32 32 32 32 31 31 31 31
32 33 33 33 33 34 34 34 34 34 35 36 37 38 38 37 37 37 36 35 35 34 34 34 33 33 32 33 33 33 33 33 33 33 32 32 32 32 32 32 31 31 32 32
30 31 32 33 33 34 34 34 33 34 35 35 36 36 36 36 36 35 36 35 35 34 34 34 33 32 32 33 33 33 33 32 32 32 32 32 31 31 31 30 31 31 32 33
30 31 31 31 32 32 32 32 32 33 33 34 34 34 33 34 34 34 34 33 33 33 33 34 33 33 33 33 33 32 31 31 30 30 30 31 31 31 31 31 31 31 32 32
30 30 30 31 31 31 31 32 31 32 32 31 31 32 32 33 33 33 33 32 32 32 32 32 33 33 32 32 32 32 31 30 30 30 30 30 30 30 30 29 30 31 31 30
28 28 29 29 30 30 30 30 31 31 31 32 32 32 32 32 32 32 32 32 32 32 32 32 31 31 31 31 31 31 31 30 30 30 30 29 29 29 29 29 30 30 30 30
26 27 27 28 28 28 28 29 29 29 30 31 31 31 31 31 32 32 32 32 32 32 31 31 31 31 31 31 31 31 31 32 31 30 30 30 29 29 29 30 30 30 31 32
25 26 26 27 26 26 27 27 28 28 28 28 29 29 29 29 29 30 30 30 30 31 30 31 31 31 30 30 30 31 31 31 31 31 30 29 29 29 30 30 30 29 30 30
23 23 23 24 25 25 25 25 25 26 26 26 26 27 27 28 28 28 28 28 28 29 29 29 29 29 29 29 29 29 29 29 29 28 28 28 29 29 29 29 28 28 29 29
21 21 21 22 22 22 22 23 23 23 23 23 24 25 25 26 26 26 26 26 26 25 24 24 24 24 25 26 27 27 27 27 27 27 28 28 28 28 28 28 27 27 28 28
20 20 20 20 20 20 20 21 21 21 21 21 22 22 22 23 23 24 24 24 24 24 23 23 23 22 23 24 25 25 25 26 26 26 27 27 26 26 26 25 25 24 25 26
19 19 19 19 19 18 18 18 18 19 20 20 21 21 21 21 21 22 22 23 22 22 21 21 22 22 23 23 23 24 24 25 25 26 26 25 25 25 25 24 24 24 24 25
17 17 17 17 17 17 17 17 18 19 19 20 20 20 20 20 20 20 21 21 21 20 21 21 21 21 21 22 22 22 22 23 24 24 24 24 24 23 23 24 24 24 25 25
Wind_Direction
247 250 253 254 257 258 258 259 262 266 268 268 267 267 268 269 268 267 269 271 274 278 282 286 288 288 288 289 292 294 296 297 298 298 296 296 297 299 299 299 301 302 303 303
250 252 254 255 255 257 259 259 262 265 266 267 267 266 267 268 270 269 269 271 272 274 278 282 285 285 286 285 289 291 292 295 295 293 292 298 302 303 302 300 300 302 303 303
252 254 256 255 255 257 261 262 262 263 264 267 266 265 265 267 270 269 272 272 272 274 277 281 284 284 285 283 285 287 289 290 289 290 292 296 299 302 303 302 301 302 302 302
253 255 257 258 258 259 261 262 261 261 262 263 266 267 268 269 270 269 271 270 270 271 273 278 281 284 283 283 284 286 289 290 288 289 291 294 297 300 301 302 302 302 302 302
254 256 258 258 259 260 261 262 262 262 262 262 264 266 268 270 270 271 272 272 272 273 274 275 278 281 283 286 287 288 290 289 288 289 289 292 296 298 299 299 300 301 301 302
255 256 258 259 259 261 262 262 261 262 263 264 264 265 267 268 268 270 271 272 274 275 275 277 278 280 283 286 288 289 289 288 289 289 289 290 293 295 296 297 299 300 300 301
257 258 258 259 261 261 262 262 261 262 263 264 266 267 267 267 267 269 270 271 273 275 277 279 280 282 284 287 289 289 287 286 287 289 289 290 291 293 295 296 298 299 299 300
257 258 259 261 262 261 261 261 261 262 263 264 266 266 266 267 268 269 271 272 274 275 276 277 280 282 284 286 287 288 287 286 286 286 287 288 290 291 293 295 296 298 298 299
258 259 260 259 260 260 260 261 260 261 263 264 266 266 266 267 268 269 270 271 272 274 275 277 279 281 282 284 285 286 286 285 285 285 285 286 288 289 291 293 294 296 298 298
258 259 259 259 259 259 259 260 260 261 262 262 263 265 266 268 269 270 272 273 272 273 275 277 279 280 281 283 284 284 284 283 284 284 283 284 285 286 288 290 292 294 296 296
259 260 260 260 260 260 261 261 261 262 262 263 264 265 267 267 269 271 272 274 273 273 275 276 277 279 280 281 281 282 282 282 283 283 282 282 284 285 287 289 291 292 293 294
257 258 259 260 262 262 262 261 261 262 264 265 265 266 268 270 271 273 273 274 274 273 273 275 276 277 278 279 280 280 280 281 283 282 280 280 282 284 286 288 290 291 293 293
257 257 259 261 263 264 263 262 261 262 264 264 265 267 268 270 271 272 273 274 274 275 275 275 275 276 278 278 279 280 280 280 281 280 280 280 281 283 285 286 288 290 292 293
257 258 260 263 264 263 264 263 262 263 265 265 266 267 268 269 270 271 272 273 273 275 276 276 276 276 278 276 276 277 278 279 279 279 279 279 280 282 284 285 287 290 292 294
258 259 261 264 264 262 263 263 264 265 267 267 268 269 269 270 271 273 275 276 275 274 276 277 276 275 276 275 275 275 276 277 277 277 278 278 278 280 281 282 285 288 290 292
257 259 261 263 264 263 263 264 265 267 269 270 270 271 271 272 274 275 276 277 276 275 274 274 275 275 274 275 275 275 275 276 276 277 277 277 279 279 279 282 284 286 289 292
256 258 260 262 263 264 265 266 266 269 270 271 272 273 273 273 274 275 276 277 277 276 276 274 273 274 275 276 277 276 276 275 276 277 278 278 279 279 281 283 285 287 290 292
259 260 261 262 264 265 266 266 266 267 269 270 270 271 272 272 273 275 275 276 276 276 276 275 274 274 275 276 276 276 275 274 275 277 278 279 281 281 281 283 285 287 290 292
260 262 263 264 266 267 268 267 267 267 269 269 269 271 271 271 272 273 274 275 275 275 274 276 275 274 274 274 274 274 275 275 274 276 278 280 281 282 282 283 284 288 290 290
261 262 263 264 265 267 268 268 269 269 269 269 271 271 270 270 271 272 272 273 275 275 275 276 276 275 274 273 273 273 273 274 275 275 276 276 278 280 281 283 286 288 290 292
261 263 265 267 268 269 270 269 269 271 270 271 272 272 271 271 271 271 272 273 274 276 275 275 275 275 275 273 273 273 273 273 273 277 276 276 277 279 281 284 286 288 290 291
263 265 267 268 270 270 270 270 272 273 274 275 274 272 273 274 274 274 275 274 275 275 275 275 275 275 275 275 274 273 273 274 274 276 279 279 279 281 283 285 286 288 290 291
265 267 268 268 270 271 271 272 273 275 276 276 275 274 275 274 274 274 275 276 276 276 275 275 275 275 275 275 275 275 275 275 275 277 278 280 282 283 284 285 286 287 290 291
265 267 269 270 270 271 272 273 274 276 277 278 278 277 277 276 276 275 276 275 276 276 276 275 276 278 277 277 277 277 276 276 277 277 278 280 283 284 285 286 287 289 290 291
265 267 270 269 270 272 274 274 275 277 280 282 282 281 280 279 277 276 276 275 274 275 275 275 277 279 280 280 280 280 279 278 278 278 279 281 283 284 286 288 289 290 292 293
267 268 269 269 270 273 275 274 276 278 280 282 283 283 282 281 279 278 277 277 277 277 277 278 279 279 280 281 282 283 283 282 281 281 280 281 282 284 286 288 288 290 292 293
269 269 269 269 269 273 276 278 279 280 281 282 283 282 282 281 281 281 281 280 278 278 278 279 278 279 281 283 285 287 287 284 283 282 281 281 283 286 289 290 290 292 292 294
Height
5864 5866 5868 5870 5871 5872 5873 5874 5874 5875 5876 5877 5878 5878 5879 5879 5879 5879 5879 5879 5878 5878 5877 5876 5875 5873 5872 5871 5870 5869 5868 5867 5865 5864 5863 5861 5860 5858 5856 5854 5853 5851 5849 5847
5858 5860 5861 5864 5866 5867 5868 5868 5869 5870 5871 5872 5872 5873 5874 5874 5874 5874 5874 5874 5874 5873 5872 5871 5870 5869 5868 5867 5865 5865 5863 5862 5860 5859 5858 5856 5855 5853 5851 5849 5848 5846 5844 5842
5852 5854 5854 5857 5860 5861 5862 5863 5864 5865 5867 5866 5867 5868 5868 5869 5869 5869 5869 5869 5869 5868 5867 5866 5865 5864 5863 5862 5861 5859 5858 5857 5855 5854 5853 5851 5850 5848 5846 5844 5842 5840 5838 5836
5845 5848 5848 5853 5854 5855 5856 5857 5858 5859 5860 5861 5861 5862 5862 5863 5863 5863 5863 5863 5863 5862 5862 5861 5860 5859 5858 5857 5855 5854 5853 5851 5849 5848 5847 5846 5844 5843 5841 5839 5837 5834 5832 5830
5838 5839 5841 5845 5846 5847 5849 5850 5852 5853 5854 5855 5855 5855 5856 5857 5857 5857 5857 5856 5856 5856 5855 5854 5854 5853 5851 5851 5849 5848 5847 5845 5844 5842 5841 5840 5838 5836 5834 5832 5830 5828 5825 5823
5831 5832 5834 5838 5839 5840 5842 5843 5845 5846 5847 5847 5848 5849 5850 5850 5850 5850 5850 5849 5849 5849 5848 5847 5847 5846 5845 5843 5842 5841 5840 5839 5837 5835 5834 5833 5831 5829 5827 5825 5823 5821 5818 5816
5823 5824 5826 5829 5831 5833 5835 5837 5838 5838 5839 5840 5841 5842 5843 5842 5842 5842 5842 5842 5841 5841 5840 5840 5839 5838 5837 5836 5835 5834 5833 5831 5830 5828 5827 5825 5824 5822 5820 5818 5816 5813 5811 5809
5816 5817 5821 5821 5822 5825 5827 5828 5829 5830 5831 5832 5833 5833 5834 5834 5835 5835 5834 5834 5834 5833 5833 5832 5831 5830 5829 5828 5827 5826 5825 5823 5822 5821 5819 5818 5816 5814 5812 5811 5809 5806 5804 5801
5809 5811 5812 5813 5814 5816 5817 5819 5820 5822 5823 5824 5824 5825 5826 5826 5826 5826 5826 5826 5825 5825 5824 5824 5823 5822 5821 5820 5819 5818 5816 5815 5814 5813 5811 5810 5808 5807 5805 5803 5801 5799 5796 5794
5800 5802 5803 5805 5806 5807 5808 5810 5811 5813 5814 5815 5816 5816 5817 5817 5817 5817 5817 5816 5816 5815 5815 5814 5813 5812 5811 5810 5809 5808 5807 5806 5805 5804 5803 5801 5800 5798 5797 5795 5793 5791 5788 5786
5792 5794 5794 5796 5797 5798 5800 5801 5802 5804 5805 5806 5807 5807 5808 5808 5808 5808 5807 5806 5805 5805 5805 5804 5803 5802 5801 5800 5799 5799 5798 5797 5796 5794 5793 5792 5791 5789 5788 5786 5784 5782 5780 5777
5783 5785 5786 5788 5789 5790 5791 5792 5793 5794 5795 5796 5796 5797 5798 5798 5798 5798 5797 5796 5795 5795 5794 5794 5793 5792 5791 5790 5789 5789 5788 5787 5786 5784 5783 5783 5781 5780 5778 5777 5775 5772 5770 5768
5775 5776 5778 5779 5780 5781 5782 5783 5784 5785 5785 5786 5786 5787 5787 5788 5787 5787 5787 5786 5785 5784 5784 5783 5783 5782 5781 5780 5779 5779 5778 5777 5776 5775 5774 5773 5772 5771 5770 5768 5766 5763 5761 5759
5766 5768 5769 5771 5771 5772 5772 5773 5774 5775 5775 5776 5776 5776 5777 5777 5777 5777 5777 5776 5775 5774 5772 5772 5772 5771 5770 5769 5769 5768 5767 5767 5766 5765 5764 5763 5762 5761 5760 5758 5757 5754 5752 5750
5758 5759 5761 5761 5762 5763 5763 5764 5764 5765 5766 5766 5766 5766 5766 5766 5766 5765 5765 5765 5764 5763 5762 5761 5761 5760 5760 5759 5758 5758 5757 5756 5755 5755 5753 5752 5752 5751 5750 5749 5747 5745 5744 5741
5750 5750 5751 5752 5753 5753 5754 5754 5755 5755 5755 5755 5755 5755 5755 5755 5754 5754 5754 5754 5753 5753 5752 5751 5750 5749 5749 5749 5748 5747 5747 5746 5745 5744 5743 5743 5742 5741 5740 5739 5738 5736 5734 5732
5741 5742 5742 5743 5743 5744 5744 5745 5745 5745 5745 5745 5745 5744 5744 5744 5744 5743 5743 5743 5743 5742 5741 5741 5740 5739 5739 5739 5738 5738 5737 5736 5735 5734 5734 5733 5732 5731 5730 5729 5728 5727 5725 5723
5732 5733 5733 5734 5734 5735 5735 5735 5736 5736 5735 5735 5735 5734 5734 5734 5734 5734 5733 5733 5732 5732 5731 5730 5730 5729 5729 5728 5727 5727 5726 5725 5725 5724 5724 5723 5722 5721 5721 5719 5718 5717 5715 5713
5722 5723 5724 5724 5725 5726 5726 5726 5726 5726 5725 5725 5725 5725 5724 5724 5724 5723 5723 5722 5722 5722 5721 5720 5720 5719 5719 5718 5717 5717 5716 5715 5715 5715 5715 5714 5713 5713 5712 5711 5709 5708 5706 5704
5714 5714 5715 5715 5716 5716 5716 5716 5717 5716 5716 5716 5715 5715 5714 5714 5713 5713 5713 5712 5712 5711 5711 5710 5710 5709 5709 5708 5708 5707 5707 5707 5706 5706 5705 5705 5704 5704 5703 5702 5701 5699 5698 5696
5706 5706 5707 5707 5707 5707 5707 5707 5707 5707 5706 5706 5705 5705 5704 5704 5704 5703 5703 5703 5702 5701 5701 5700 5700 5699 5699 5698 5698 5698 5698 5697 5697 5696 5696 5695 5695 5695 5694 5693 5692 5690 5689 5687
5698 5698 5698 5698 5699 5699 5699 5699 5699 5698 5698 5697 5696 5695 5695 5695 5694 5694 5693 5693 5693 5692 5691 5691 5690 5689 5689 5689 5689 5689 5689 5688 5688 5688 5687 5686 5686 5686 5685 5684 5683 5681 5680 5678
5690 5690 5691 5691 5691 5691 5691 5690 5690 5690 5689 5689 5688 5687 5686 5686 5685 5685 5685 5684 5683 5683 5682 5681 5681 5681 5680 5680 5680 5680 5680 5680 5680 5679 5679 5679 5678 5677 5676 5675 5674 5672 5671 5669
5683 5684 5684 5684 5683 5683 5683 5683 5683 5682 5682 5681 5679 5679 5678 5677 5677 5676 5676 5675 5675 5674 5674 5673 5673 5673 5672 5672 5672 5672 5671 5671 5671 5671 5671 5670 5669 5668 5667 5666 5665 5664 5662 5661
5676 5676 5676 5677 5677 5677 5676 5676 5676 5675 5674 5673 5672 5671 5670 5670 5669 5669 5668 5667 5667 5667 5667 5666 5666 5666 5665 5665 5664 5664 5663 5663 5663 5663 5662 5662 5661 5660 5659 5658 5657 5655 5654 5653
5670 5670 5670 5670 5670 5670 5669 5669 5669 5668 5668 5667 5665 5664 5664 5663 5662 5661 5661 5660 5660 5660 5659 5659 5659 5659 5658 5658 5657 5656 5656 5655 5655 5654 5654 5654 5653 5653 5652 5650 5649 5648 5646 5644
5665 5665 5665 5665 5664 5664 5663 5663 5663 5662 5661 5660 5659 5658 5657 5656 5656 5655 5654 5654 5653 5653 5653 5653 5652 5652 5651 5651 5650 5649 5648 5648 5647 5647 5647 5646 5646 5645 5644 5643 5642 5640 5638 5637